www.pogodaiklimat.ru

Погода и климат >> Архив погоды >> Хорватия >> Огулин


ПОГОДА в Огулине

  • Прогноз погоды в Огулине
  • Монитор погоды в Огулине

АРХИВ ПОГОДЫ в Огулине

Время (UTC), дата Ветер
(напр.,м/с)
 
Видим.   Явления Облачность Т
(С)
Тd
(С)
f
(%)
Тe
(С)
Тes
(С)
Комфортность P
(гПа)
Po
(гПа)
Тmin
(С)
Tmax
(С)
R
(мм)
R24
(мм)
S
(см)
16 16.07 В 2 н/о н/о +24.4 +11.1 43 +26 +26 жарко 1012.2 974.9
17 16.07 СВ 2 н/о н/о +24.2 +10.9 43 +25 +25 комфорт 1012.2 974.9
18 16.07 СЗ 1 20 км ясно +22.6 +14.4 60 +26 +26 жарко 1012.4 975.1 +25.0
19 16.07 СЗ 1 20 км ясно +19.0 +13.3 70 +21 +21 комфорт 1013.3 975.5
20 16.07 СЗ 1 20 км ясно +16.4 +13.3 82 +17 +17 1014.3 976.1
21 16.07 СЗ 2 н/о н/о +14.9 +12.8 87 +15 +15 1015.0 976.4
00 17.07 СЗ 2 н/о н/о +12.8 +11.3 91 +12 +12 1015.8 976.9
03 17.07 СЗ 2 н/о н/о +11.7 +9.7 88 +11 +11 1015.6 976.5
04 17.07 СЗ 2 н/о н/о +11.8 +9.6 86 +11 +11 1015.5 976.5
05 17.07 СЗ 1 н/о н/о +13.7 +10.2 79 +14 +14 1015.4 976.6
06 17.07 С 1 20 км ясно +16.1 +11.3 73 +17 +22 1014.7 976.5 +11.5
07 17.07 СЗ 1 20 км ясно +20.0 +12.1 60 +23 +32 комфорт 1014.2 976.5
08 17.07 штиль 0 20 км ясно +24.0 +11.4 45 +25 +41 комфорт 1013.4 976.2
09 17.07 ЮВ 1 20 км 1/1 1000 м
[Cu med, cong Ci fib]
+25.3 +11.4 42 +27 +43 жарко 1012.7 975.7
10 17.07 ЮВ 1 20 км 1/1 1000 м
[Cu med, cong Ci fib]
+26.1 +10.4 37 +27 +45 жарко 1012.4 975.5
11 17.07 В 1 20 км 1/1 1000 м
[Cu med, cong Ci fib]
+26.5 +11.8 40 +28 +47 жарко 1011.7 974.9
12 17.07 ЮВ 1 20 км 1/1 1000 м
[Cu med, cong Ci fib]
+27.2 +12.2 39 +28 +47 жарко 1011.2 974.5
13 17.07 В 2 20 км 5/1 1000 м
[Cu med, cong Ci]
+27.5 +13.2 41 +29 +41 жарко 1010.7 974.0
14 17.07 СВ 2 н/о н/о +28.1 +12.9 39 +30 +30 жарко 1010.6 973.8
15 17.07 В 2 н/о н/о +27.4 +13.1 41 +29 +29 жарко 1010.6 973.7
16 17.07 ЮВ 2 н/о н/о +26.7 +13.2 43 +28 +28 жарко 1010.5 973.5
17 17.07 В 2 н/о н/о +26.6 +12.3 41 +28 +28 жарко 1010.4 973.4
18 17.07 ЮВ 1 15 км 3/0
[Cs]
+24.0 +15.0 57 +27 +27 жарко 1010.2 973.2 +27.9
19 17.07 СЗ 1 15 км 3/0
[Cs]
+21.4 +16.1 72 +25 +25 комфорт 1010.5 973.2
20 17.07 СЗ 1 15 км 3/0
[Cs]
+19.2 +15.7 80 +22 +22 комфорт 1011.7 974.0
21 17.07 СЗ 2 н/о н/о +18.1 +15.0 82 +19 +19 1012.1 974.0
00 18.07 штиль 0 н/о н/о +15.3 +13.6 90 +15 +15 1012.7 974.2
03 18.07 Ю 1 н/о н/о +15.7 +12.1 79 +16 +16 1012.6 974.2
04 18.07 ЮЗ 1 н/о н/о +15.6 +12.2 80 +16 +16 1012.8 974.4
05 18.07 штиль 0 н/о н/о +16.4 +12.8 79 +16 +16 1012.8 974.5
06 18.07 штиль 0 15 км 9/9 1000 м
[Sc]
+17.1 +13.7 80 +17 +18 1012.5 974.5 +14.8
07 18.07 штиль 0 15 км 10/10 1000 м
[Sc]
+18.2 +14.5 79 +18 +18 1012.4 974.6
08 18.07 З 1 15 км 10/10 1000 м
[Sc]
+18.6 +14.4 77 +20 +20 1012.6 974.8
09 18.07 С 1 15 км 10/10 1000 м
[Sc]
+19.0 +15.4 80 +21 +21 комфорт 1012.5 974.8
10 18.07 З 1 15 км 10/10 1000 м
[Sc]
+19.2 +15.1 77 +22 +22 комфорт 1013.0 975.3
11 18.07 штиль 0 15 км 10/10 1000 м
[Sc]
+20.0 +15.4 75 +22 +22 комфорт 1012.9 975.3
12 18.07 ЮВ 1 15 км 8/5 1000 м
[Cu med, cong Ci fib]
+23.7 +15.7 61 +27 +36 жарко 1012.3 975.2
13 18.07 СВ 1 15 км 8/6 600 м
[Cu Sc Ci fib]
+25.3 +14.9 53 +28 +34 жарко 1011.4 974.5
14 18.07 С 1 н/о н/о +24.0 +16.1 61 +27 +27 жарко 1011.9 974.6
15 18.07 С 2 н/о н/о +23.6 +17.2 67 +27 +27 жарко 1012.3 974.9
16 18.07 С 1 н/о н/о +20.4 +16.3 77 +24 +24 комфорт 1012.7 974.9
17 18.07 З 1 н/о н/о +19.2 +16.3 83 +22 +22 комфорт 1013.4 975.4
18 18.07 В 1 15 км {гроза, ливн. осадки} 9/6 1000 м
[Sc Ci fib]
+19.6 +15.8 79 +23 +23 комфорт 1013.2 975.5 +25.5 6
19 18.07 СЗ 1 15 км 9/9 1000 м
[Sc]
+18.0 +16.4 90 +19 +19 1013.7 975.8
20 18.07 СЗ 1 15 км 8/8 1000 м
[Sc]
+17.3 +15.7 90 +18 +18 1014.7 976.7
21 18.07 СЗ 1 н/о н/о +16.9 +15.5 91 +18 +18 1015.4 977.0
00 19.07 З 1 н/о н/о +16.4 +15.0 91 +17 +17 1016.1 977.6
03 19.07 СЗ 2 н/о н/о +15.0 +14.1 94 +15 +15 1016.6 977.9
04 19.07 СЗ 2 н/о н/о +15.0 +13.9 93 +15 +15 1016.7 978.0
05 19.07 СЗ 1 н/о н/о +16.9 +14.6 86 +18 +18 1016.6 978.2
06 19.07 СЗ 1 20 км 1/0
[Ci fib]
+18.9 +15.1 79 +21 +26 комфорт 1016.5 978.6 +14.9
07 19.07 штиль 0 20 км 3/0
[Ci fib]
+21.9 +15.9 69 +26 +35 душно 1016.2 978.7
08 19.07 ЮВ 1 20 км 3/3 1000 м
[Cu med, cong Ci fib]
+23.5 +16.0 63 +27 +36 душно 1016.0 978.7
09 19.07 ЮВ 1 20 км 3/3 1000 м
[Cu med, cong Ci fib]
+25.2 +15.7 56 +28 +41 жарко 1015.8 978.7
10 19.07 С 2 20 км 3/3 1000 м
[Cu med, cong Ci fib]
+25.7 +17.1 59 +30 +42 душно 1015.6 978.6
11 19.07 С 2 20 км 3/3 1000 м
[Cu med, cong Ac trans Ci sp]
+26.6 +17.0 56 +31 +43 душно 1015.4 978.5
12 19.07 З 1 20 км 3/3 1000 м
[Cu med, cong Ac trans]
+27.7 +16.0 49 +31 +45 душно 1014.8 978.1
13 19.07 СВ 2 20 км гроза без осадков 4/3 1000 м
[Cb calv Ac trans Ci fib]
+27.9 +16.7 51 +32 +41 душно 1014.7 978.0
14 19.07 З 2 н/о н/о +25.0 +16.0 57 +28 +28 жарко 1015.3 978.0
15 19.07 ЮВ 1 н/о н/о +24.7 +16.0 58 +28 +28 душно 1015.7 978.3
16 19.07 З 2 н/о н/о +23.6 +16.7 65 +27 +27 жарко 1015.7 978.2
17 19.07 Ю 1 н/о н/о +23.3 +15.7 62 +28 +28 душно 1015.7 978.1
18 19.07 З 1 20 км {гроза} 5/0
[Ac trans Ci fib]
+22.6 +16.8 70 +27 +27 душно 1015.5 978.1 +28.0
19 19.07 штиль 0 20 км 3/0
[Ac trans Ci fib]
+20.3 +17.1 82 +23 +23 комфорт 1016.4 978.7
20 19.07 СЗ 1 20 км 1/0
[Ci fib]
+18.5 +16.1 86 +20 +20 1017.3 979.3
21 19.07 СЗ 1 н/о н/о +17.5 +15.6 89 +19 +19 1018.0 979.6
00 20.07 СЗ 3 н/о н/о +16.0 +14.6 91 +16 +16 1018.2 979.6
03 20.07 З 1 н/о н/о +14.7 +13.3 91 +15 +15 1018.4 979.6
04 20.07 СЗ 2 н/о н/о +14.2 +13.0 92 +14 +14 1018.5 979.7
05 20.07 СЗ 2 н/о н/о +16.6 +13.6 82 +17 +17 1018.4 979.9
06 20.07 З 2 20 км ясно +19.6 +14.5 72 +22 +26 комфорт 1017.9 980.0 +14.0
07 20.07 СЗ 1 20 км ясно +22.8 +15.3 63 +27 +36 душно 1017.5 980.1
08 20.07 ЮВ 1 20 км ясно +26.2 +16.2 54 +30 +43 душно 1017.0 980.0
09 20.07 ЮВ 1 20 км ясно +27.0 +14.8 47 +30 +47 душно 1017.0 980.1
10 20.07 З 1 20 км 1/1 1000 м
[Cu hum]
+29.2 +14.6 41 +31 +50 жарко 1016.4 979.8
11 20.07 Ю 2 20 км 1/1 1000 м
[Cu med, cong]
+29.9 +14.6 39 +32 +48 жарко 1016.3 979.7
12 20.07 Ю 3 20 км 1/1 1000 м
[Cu med, cong]
+30.6 +13.9 36 +32 +45 жарко 1015.9 979.4
13 20.07 ЮЗ 4 20 км 1/1 1000 м
[Cu med, cong Ci fib]
+30.3 +13.1 35 +32 +41 жарко 1015.8 979.3
14 20.07 ЮЗ 4 н/о н/о +30.6 +12.6 33 +31 +31 жарко 1015.9 979.2
15 20.07 ЮЗ 4 н/о н/о +30.4 +12.4 33 +31 +31 жарко 1015.8 979.1
17 20.07 ЮЗ 5 н/о н/о +27.9 +13.9 42 +30 +30 жарко 1015.6 978.6
18 20.07 СЗ 3 20 км 3/0
[Ac trans Ci sp]
+26.1 +15.5 52 +29 +29 жарко 1016.4 979.4 +30.7
19 20.07 СЗ 3 30 км 1/0
[Ci sp]
+24.8 +15.0 54 +28 +28 жарко 1016.8 979.6
20 20.07 СЗ 3 20 км 1/0
[Ci sp]
+24.1 +14.5 55 +27 +27 жарко 1017.4 980.1
21 20.07 ЮЗ 3 н/о н/о +23.1 +13.9 56 +27 +27 душно 1018.1 980.4
00 21.07 СЗ 2 н/о н/о +19.0 +13.5 70 +21 +21 комфорт 1019.2 981.0
03 21.07 С 1 н/о н/о +20.2 +12.0 59 +23 +23 комфорт 1017.9 979.9
04 21.07 З 2 н/о н/о +22.4 +12.1 52 +25 +25 комфорт 1018.3 980.5
05 21.07 З 2 н/о н/о +22.4 +12.7 54 +25 +25 комфорт 1018.3 980.5
06 21.07 З 3 15 км 9/0
[Cs]
+23.5 +14.2 56 +26 +29 жарко 1017.8 980.4 +18.8
07 21.07 СЗ 2 20 км 5/0
[Cs]
+25.5 +14.4 50 +28 +35 жарко 1017.5 980.4
08 21.07 ЮЗ 3 20 км 1/0
[Ci fib]
+27.2 +15.1 48 +30 +39 душно 1017.3 980.4
09 21.07 ЮЗ 4 20 км 3/0
[Ci fib]
+28.6 +16.3 47 +32 +41 душно 1017.1 980.4
10 21.07 ЮЗ 3 20 км 4/1 1000 м
[Cu med, cong Ci fib]
+30.3 +17.1 45 +34 +46 очень
душно
1017.2 980.7
11 21.07 ЮЗ 3 20 км 4/1 1000 м
[Cu med, cong Ci fib]
+31.4 +17.6 44 +36 +48 очень
душно
1017.0 980.6
12 21.07 СЗ 2 20 км 1/1 1000 м
[Cu med, cong]
+31.5 +15.9 39 +34 +50 душно 1017.0 980.6
13 21.07 З 1 20 км 1/1 1000 м
[Cu med, cong]
+32.2 +15.9 38 +35 +51 опасность
солнечного
удара
1016.7 980.4
14 21.07 ЮЗ 2 н/о н/о +32.8 +18.6 43 +38 +38 очень
душно
1016.5 980.0
15 21.07 ЮЗ 4 н/о н/о +32.0 +16.0 38 +35 +35 очень
душно
1016.3 979.8
16 21.07 ЮЗ 3 н/о н/о +28.5 +15.8 46 +32 +32 душно 1016.8 979.8
17 21.07 С 2 н/о н/о +28.4 +16.7 49 +32 +32 душно 1017.7 980.7
18 21.07 СЗ 2 15 км в посл. час гроза {дождь} 9/9 600 м
[Cu Sc]
+23.6 +18.9 75 +28 +28 душно 1019.9 982.5 +32.4 0.1
19 21.07 З 1 15 км 5/5 1000 м
[Sc]
+22.9 +18.4 76 +29 +29 очень
душно
1020.0 982.5
20 21.07 З 1 15 км 5/5 1000 м
[Sc]
+21.4 +17.8 80 +26 +26 душно 1021.5 983.8
21 21.07 СЗ 1 н/о н/о +19.9 +17.7 87 +24 +24 комфорт 1022.8 984.5
00 22.07 н/о н/о +18.9 +17.3 90 1023.6 985.2
03 22.07 СЗ 1 н/о н/о +16.9 +16.0 94 +18 +18 1023.7 985.0
04 22.07 СЗ 1 н/о н/о +16.5 +15.8 96 +17 +17 1023.8 985.1
05 22.07 н/о н/о +17.2 +15.8 91 1024.2 985.5
06 22.07 СЗ 1 15 км 1/0
[Ac trans]
+19.6 +16.8 84 +23 +27 комфорт 1023.6 985.6 +16.2
07 22.07 В 1 15 км 1/0
[Ac cast]
+23.9 +18.1 70 +28 +36 душно 1023.1 985.6
08 22.07 СВ 1 15 км 1/0
[Ac trans]
+25.4 +17.3 61 +29 +42 душно 1022.9 985.6
09 22.07 ЮВ 2 20 км 3/1 1000 м
[Cu hum Ac trans Ci fib]
+26.2 +17.0 57 +30 +42 душно 1022.9 985.7
10 22.07 СВ 2 20 км 5/1 1000 м
[Cu med, cong Ci]
+26.8 +17.7 57 +31 +45 душно 1022.8 985.7
11 22.07 В 1 20 км 5/3 1000 м
[Cu med, cong Ci fib]
+26.8 +18.1 59 +31 +45 душно 1022.4 985.3
12 22.07 ЮВ 2 20 км 8/1 1000 м
[Cu med, cong Cs]
+28.0 +18.3 56 +33 +46 очень
душно
1021.7 984.8
13 22.07 ЮВ 1 20 км 6/1 1000 м
[Cu med, cong Cs]
+28.0 +17.3 52 +32 +46 душно 1021.6 984.7
14 22.07 С 2 н/о н/о +28.5 +17.5 51 +33 +33 очень
душно
1021.3 984.2
15 22.07 ЮВ 1 н/о н/о +28.1 +17.1 51 +32 +32 душно 1021.1 983.9
16 22.07 ЮВ 1 н/о н/о +27.9 +16.3 49 +31 +31 душно 1020.7 983.5
17 22.07 В 1 н/о н/о +27.0 +18.1 58 +32 +32 очень
душно
1020.6 983.3
18 22.07 СЗ 1 15 км 9/6 1000 м
[Sc Ci fib]
+25.8 +19.7 69 +31 +31 очень
душно
1020.6 983.5 +28.5
19 22.07 СЗ 1 15 км 8/4 1000 м
[Sc Ci sp]
+23.9 +19.6 77 +29 +29 душно 1021.0 983.6
20 22.07 СЗ 1 15 км 5/3 1000 м
[Sc Ci sp]
+21.9 +19.1 84 +27 +27 душно 1021.5 983.9
21 22.07 СЗ 1 н/о н/о +20.2 +18.6 91 +25 +25 комфорт 1022.2 984.0
00 23.07 СЗ 2 н/о н/о +18.5 +16.9 90 +20 +20 1022.4 984.0
03 23.07 З 2 н/о н/о +17.3 +15.9 91 +18 +18 1021.9 983.3
04 23.07 СЗ 2 н/о н/о +16.9 +15.5 91 +17 +17 1022.1 983.5
05 23.07 н/о н/о +18.4 +15.9 85 1021.7 983.3
06 23.07 С 1 20 км ясно +21.4 +17.1 76 +25 +30 комфорт 1020.8 983.1 +16.8
07 23.07 З 1 20 км ясно +23.9 +18.1 70 +28 +37 душно 1020.5 983.1
08 23.07 ЮЗ 1 20 км 1/1 1000 м
[Cu hum]
+27.2 +18.4 59 +32 +44 очень
душно
1020.1 983.1
09 23.07 СВ 1 20 км 1/1 1000 м
[Cu hum]
+28.6 +16.1 47 +32 +47 душно 1019.8 983.0
10 23.07 СВ 2 20 км 3/3 1000 м
[Cu med, cong]
+28.9 +16.6 47 +32 +44 душно 1019.6 982.8
11 23.07 СВ 2 20 км 3/3 1000 м
[Cu med, cong]
+29.4 +16.7 46 +33 +46 душно 1019.3 982.6
12 23.07 СВ 2 20 км 3/3 1000 м
[Cu med, cong]
+29.7 +16.0 44 +33 +45 душно 1018.9 982.2
13 23.07 В 1 20 км 3/3 1000 м
[Cu med, cong]
+29.6 +15.9 44 +33 +45 душно 1018.5 981.8
14 23.07 СВ 2 н/о н/о +30.3 +14.9 39 +32 +32 жарко 1018.1 981.3
15 23.07 СВ 1 н/о н/о +30.5 +14.6 38 +33 +33 душно 1017.9 981.1

 

Местоположение метеостанции Огулин (Хорватия): широта 45.27 долгота 15.23 высота над уровнем моря 328 м.

В архиве по умолчанию представлена погода в Огулине за последнюю неделю. Архивные данные за месяц целиком и за предыдущие месяцы, начиная с января 2011 года, Вы можете получить, выбрав интересующий диапазон дат из раскрывающегося списка и нажав кнопку "Ввод!".


*Определитесь, кто Вы:
робот инопланетянин человек

Внимание! Время в таблицах - всемирное. Для получения местного времени необходимо прибавить поправку, которая равна 1 ч.

Смотрите также архив погоды в соседних городах и на ближайших метеорологических станциях:

Погода в Чрномеле (Словения) (34 км)
Погода в Карловаце (Хорватия) (37 км)
Погода в Сене (Хорватия) (40 км)
Погода в Риека аэропорту (Хорватия) (51 км)
Погода в Кочевье (Словения) (52 км)
Погода в Завизани (Хорватия) (54 км)
Погода в Ново-Месте (Словения) (59 км)
Погода в Парке (Хорватия) (60 км)
Погода в Риеке (Хорватия) (61 км)
Погода в Рабе (Хорватия) (68 км)

Пояснения к столбцам:

Ветер - указаны скорость ветра в м/с - средняя за 10 мин, порывы в срок и между сроками (в фигурных скобках) и направление, откуда дует ветер: С - северный, СВ - северо-восточный, В - восточный, ЮВ - юго-восточный, Ю - южный, ЮЗ - юго-западный, З - западный, СЗ - северо-западный.
Видимость - горизонтальная дальность видимости в метрах или километрах. При видимости от 1 до 10 км при отсутствии осадков обычно наблюдается дымка, при ухудшении видимости до 1 км и менее - туман. В сухую погоду видимость может ухудшаться дымом, пылью или мглою.
Явления - указаны атмосферные явления, наблюдавшиеся в срок или в последний час перед сроком; фигурными скобками обозначены явления, наблюдавшиеся между сроками (за 1-3 часа до срока); квадратными скобками обозначены град или гололедные отложения с указанием их диаметра в мм.
Облачность - указаны через наклонную черту общая и нижняя облачность в баллах и высота нижней границы облаков в метрах; квадратными скобками обозначены формы облаков: Ci - перистые, Cs - перисто-слоистые, Cc - перисто-кучевые, Ac - высококучевые, As - высокослоистые, Sc - слоисто-кучевые, Ns - слоисто-дождевые, Cu - кучевые, Cb - кучево-дождевые. Подробнее классификацию облаков см. в Атласе облаков (PDF).
T - Температура воздуха - температура, измеренная на высоте 2 м над землей.
Td - Температура точки росы - температура, при понижении до которой содержащийся в воздухе водяной пар достигнет насыщения.
f - Относительная влажность воздуха - влажноcть воздуха, измеренная на высоте 2 м над землей.
Te - Эффективная температура - температура, которую ощущает одетый по сезону человек в тени. Характеристика душности погоды. При расчете учитывается влияние влажности воздуха и скорости ветра на теплоощущения человека.
Tes - Эффективная температура на солнце - температура, которую ощущает человек, с поправкой на солнечный нагрев. Характеристика знойности погоды. Зависит от высоты солнца над горизонтом, облачности и скорости ветра. Ночью, в пасмурную погоду, а также при ветре 12 м/с и более поправка равна нулю.
P - Атмосферное давление - приведенное к уровню моря атмосферное давление.
Po - Атмосферное давление - измеренное на уровне метеостанции атмосферное давление.
Tmin - Минимальная температура - минимум температуры воздуха на высоте 2 м над землей.
Tmax - Максимальная температура - максимум температуры воздуха на высоте 2 м над землей.
R - Количество осадков - Количество выпавших осадков за период времени, мм. При наведении курсора мыши на число - период времени, за который выпало указанное количество осадков.
R24 - Количество осадков - Количество выпавших осадков за 24 часа, мм.
S - Снежный покров - Высота снежного покрова, см. При наведении курсора мыши на число - состояние снежного покрова и степень покрытия местности в баллах.